DB0OHL Weather Reports


Display with metric or nautical units.
time (UTC)temp
F
wind
direction
speed
MPH
gust
MPH
rain 1hr
in
rain 24hr
in
rain mn
in
humidity
%
barometer
mb
20260502181527 69 0.0 2.0 0.00 0.00 0.00 69 1013.5
20260502180524 69 0.0 3.0 0.00 0.00 0.00 66 1013.3
20260502163602 74 2.0 6.0 0.00 0.00 0.00 64 1014.3
20260502162559 73 0.0 4.0 0.00 0.00 0.00 65 1014.5
20260502161557 71 1.0 4.0 0.00 0.00 0.00 68 1014.5
20260502160554 70 1.0 3.0 0.00 0.00 0.00 74 1014.9
20260502151541 66 3.0 8.0 0.00 0.00 0.00 80 1015.2
20260502150539 66 3.0 8.0 0.00 0.00 0.00 77 1015.4
20260502130608 76 7.0 21.0 0.00 0.00 0.00 57 1016.2
20260502123601 75 4.0 17.0 0.00 0.00 0.00 59 1016.6
20260502122558 75 4.0 13.0 0.00 0.00 0.00 58 1016.7
20260502121556 75 3.0 11.0 0.00 0.00 0.00 58 1016.7
20260502120553 74 4.0 9.0 0.00 0.00 0.00 59 1016.9
20260502115551 74 3.0 8.0 0.00 0.00 0.00 58 1017.1
20260502114548 75 3.0 9.0 0.00 0.00 0.00 57 1017.0
20260502113546 75 4.0 14.0 0.00 0.00 0.00 57 1017.3
20260502112543 74 3.0 13.0 0.00 0.00 0.00 58 1017.3
20260502111541 73 4.0 11.0 0.00 0.00 0.00 58 1017.5
20260502110538 73 2.0 12.0 0.00 0.00 0.00 58 1017.5
20260502105535 73 3.0 10.0 0.00 0.00 0.00 59 1017.6
20260502104533 73 2.0 8.0 0.00 0.00 0.00 58 1017.7
20260502103530 73 2.0 8.0 0.00 0.00 0.00 57 1017.7
20260502102528 72 4.0 10.0 0.00 0.00 0.00 57 1017.9
20260502101525 72 4.0 12.0 0.00 0.00 0.00 56 1018.1
20260502100523 71 2.0 7.0 0.00 0.00 0.00 57 1018.2
20260502090608 70 3.0 11.0 0.00 0.00 0.00 55 1018.4
20260502070537 64 1.0 6.0 0.00 0.00 0.00 55 1018.6
20260502065535 63 2.0 8.0 0.00 0.00 0.00 56 1018.7
20260502064532 62 2.0 5.0 0.00 0.00 0.00 57 1018.8
20260502063530 62 3.0 7.0 0.00 0.00 0.00 59 1018.9
20260502062527 61 3.0 11.0 0.00 0.00 0.00 59 1018.9
20260502061525 61 3.0 10.0 0.00 0.00 0.00 59 1018.9
20260502060522 60 3.0 11.0 0.00 0.00 0.00 58 1018.8
20260502055520 60 2.0 4.0 0.00 0.00 0.00 58 1018.8
20260502054517 59 2.0 5.0 0.00 0.00 0.00 59 1018.9
20260502053515 59 3.0 6.0 0.00 0.00 0.00 59 1018.8
20260502052612 58 3.0 7.0 0.00 0.00 0.00 59 1018.8
20260502051610 58 3.0 8.0 0.00 0.00 0.00 59 1019.0
20260502050607 59 3.0 8.0 0.00 0.00 0.00 58 1018.8
20260502045605 58 3.0 10.0 0.00 0.00 0.00 58 1018.8
20260502044602 58 3.0 7.0 0.00 0.00 0.00 59 1018.7
20260502043600 58 3.0 7.0 0.00 0.00 0.00 59 1018.7
20260502042557 58 3.0 8.0 0.00 0.00 0.00 58 1018.9
20260502041555 58 3.0 6.0 0.00 0.00 0.00 58 1018.8
20260502040552 58 2.0 6.0 0.00 0.00 0.00 58 1018.9
20260502035550 58 3.0 8.0 0.00 0.00 0.00 58 1019.1
20260502034547 58 2.0 8.0 0.00 0.00 0.00 58 1019.0
20260502033544 58 3.0 7.0 0.00 0.00 0.00 58 1019.2
20260502032542 59 3.0 6.0 0.00 0.00 0.00 58 1019.2
20260502031539 59 2.0 6.0 0.00 0.00 0.00 57 1019.2
20260502030537 59 3.0 7.0 0.00 0.00 0.00 56 1019.2
20260502025534 59 3.0 8.0 0.00 0.00 0.00 56 1019.4
20260502024532 59 3.0 7.0 0.00 0.00 0.00 56 1019.4
20260502023529 60 3.0 11.0 0.00 0.00 0.00 56 1019.4
20260502022527 60 2.0 13.0 0.00 0.00 0.00 56 1019.5
20260502021524 60 3.0 8.0 0.00 0.00 0.00 55 1019.5
20260502020522 60 3.0 11.0 0.00 0.00 0.00 55 1019.4
20260502015519 60 3.0 9.0 0.00 0.00 0.00 55 1019.6
20260502014517 60 3.0 9.0 0.00 0.00 0.00 55 1019.8
20260502013614 60 3.0 10.0 0.00 0.00 0.00 56 1019.8
20260502012612 60 3.0 8.0 0.00 0.00 0.00 56 1019.9
20260502011609 60 3.0 8.0 0.00 0.00 0.00 56 1019.9
20260502010607 60 3.0 7.0 0.00 0.00 0.00 56 1020.1
20260502005604 60 3.0 7.0 0.00 0.00 0.00 55 1020.1
20260502004602 60 3.0 10.0 0.00 0.00 0.00 55 1020.2
20260502003559 60 3.0 8.0 0.00 0.00 0.00 55 1020.3
20260502002557 60 3.0 5.0 0.00 0.00 0.00 54 1020.3
20260502001554 60 3.0 7.0 0.00 0.00 0.00 54 1020.4
20260502000551 61 3.0 8.0 0.00 0.00 0.00 53 1020.5
20260501235549 61 4.0 9.0 0.00 0.00 0.00 52 1020.6
20260501234546 62 3.0 9.0 0.00 0.00 0.00 52 1020.6
20260501233544 62 3.0 9.0 0.00 0.00 0.00 52 1020.8
20260501232541 62 4.0 8.0 0.00 0.00 0.00 51 1020.7
20260501231539 62 4.0 9.0 0.00 0.00 0.00 51 1020.6
20260501230536 62 4.0 12.0 0.00 0.00 0.00 51 1020.7
20260501225534 63 3.0 8.0 0.00 0.00 0.00 50 1020.8
20260501224531 63 4.0 14.0 0.00 0.00 0.00 49 1020.8
20260501223529 63 4.0 10.0 0.00 0.00 0.00 48 1020.9
20260501222526 64 4.0 12.0 0.00 0.00 0.00 47 1020.9
20260501221523 64 4.0 11.0 0.00 0.00 0.00 47 1021.1
20260501220521 65 4.0 12.0 0.00 0.00 0.00 46 1021.0
20260501215518 65 4.0 12.0 0.00 0.00 0.00 46 1021.1
20260501214516 64 3.0 10.0 0.00 0.00 0.00 46 1020.9
20260501213613 65 3.0 8.0 0.00 0.00 0.00 46 1021.1
20260501212611 65 3.0 8.0 0.00 0.00 0.00 45 1021.1
20260501211608 65 4.0 10.0 0.00 0.00 0.00 45 1021.1
20260501210606 66 4.0 13.0 0.00 0.00 0.00 44 1021.1
20260501205603 67 5.0 15.0 0.00 0.00 0.00 43 1021.1
20260501204601 67 5.0 11.0 0.00 0.00 0.00 42 1021.4
20260501203558 67 6.0 14.0 0.00 0.00 0.00 42 1021.3
20260501202556 67 6.0 17.0 0.00 0.00 0.00 41 1021.3
20260501201553 68 8.0 16.0 0.00 0.00 0.00 41 1021.3
20260501200551 67 6.0 15.0 0.00 0.00 0.00 41 1021.3
20260501195548 67 5.0 14.0 0.00 0.00 0.00 41 1021.4
20260501194545 67 4.0 12.0 0.00 0.00 0.00 41 1021.2
20260501193543 67 4.0 10.0 0.00 0.00 0.00 41 1021.2
20260501192540 67 4.0 16.0 0.00 0.00 0.00 41 1021.2
20260501191538 67 4.0 14.0 0.00 0.00 0.00 41 1021.2
20260501190535 68 3.0 8.0 0.00 0.00 0.00 41 1021.3
20260501185533 68 3.0 6.0 0.00 0.00 0.00 40 1021.3
20260501184530 68 2.0 4.0 0.00 0.00 0.00 40 1021.3
20260501183528 69 2.0 6.0 0.00 0.00 0.00 40 1021.2
20260501182525 69 2.0 8.0 0.00 0.00 0.00 39 1021.2